THA132 VTBS-VTCT

Flight info

Callsign THA132
Flight time N/A
Altitude 36000
Route UGUVO1K UGUVO Y27 IKISU W22 BENVI
Aircraft A21N/M-SDFGHIJ4J5M1RWY/LB1

Departure

Time N/A
Airport Suvarnabhumi Airport (VTBS)

Arrival

Time 2026-05-08 20:29
Airport Mae Fah Luang - Chiang Rai International Airport (VTCT)
Time Latitude Longitude Altitude Speed Heading
2026-05-08 19:52 16.32405 100.20353 35911 ft 459 kts 356°
2026-05-08 19:52 16.35594 100.20113 35910 ft 459 kts 356°
2026-05-08 19:53 16.48084 100.19156 35910 ft 459 kts 356°
2026-05-08 19:54 16.54455 100.18668 35926 ft 459 kts 356°
2026-05-08 19:54 16.60825 100.18182 35929 ft 459 kts 355°
2026-05-08 19:55 16.67196 100.17691 35934 ft 459 kts 355°
2026-05-08 19:55 16.73571 100.17205 35933 ft 459 kts 356°
2026-05-08 19:56 16.79953 100.16719 35929 ft 459 kts 355°
2026-05-08 19:56 16.86325 100.16232 35931 ft 459 kts 355°
2026-05-08 19:57 16.92700 100.15748 35930 ft 459 kts 355°
2026-05-08 19:57 16.99036 100.15264 35923 ft 460 kts 355°
2026-05-08 19:58 17.05458 100.14775 35929 ft 460 kts 355°
2026-05-08 19:58 17.11833 100.14282 35931 ft 460 kts 355°
2026-05-08 19:59 17.18218 100.13797 35929 ft 460 kts 355°
2026-05-08 19:59 17.24600 100.13309 35928 ft 460 kts 355°
2026-05-08 20:00 17.30981 100.12823 35929 ft 460 kts 355°
2026-05-08 20:00 17.37317 100.12330 35929 ft 460 kts 355°
2026-05-08 20:01 17.43703 100.11839 35929 ft 460 kts 355°
2026-05-08 20:01 17.50095 100.11345 35929 ft 460 kts 355°
2026-05-08 20:02 17.56478 100.10852 35928 ft 460 kts 355°
2026-05-08 20:02 17.62875 100.10358 35930 ft 461 kts 355°
2026-05-08 20:03 17.69261 100.09867 35928 ft 461 kts 355°
2026-05-08 20:03 17.75657 100.09375 35928 ft 461 kts 355°
2026-05-08 20:04 17.82056 100.08875 35931 ft 461 kts 355°
2026-05-08 20:04 17.88450 100.08380 35931 ft 461 kts 355°
2026-05-08 20:05 17.94840 100.07883 35933 ft 461 kts 355°
2026-05-08 20:05 18.01230 100.07392 35886 ft 456 kts 355°
2026-05-08 20:06 18.04399 100.07148 35026 ft 459 kts 355°
2026-05-08 20:06 18.07603 100.06900 33989 ft 465 kts 355°
2026-05-08 20:06 18.10819 100.06650 33297 ft 463 kts 355°
2026-05-08 20:06 18.14015 100.06405 32757 ft 457 kts 355°
2026-05-08 20:07 18.17160 100.06165 32252 ft 450 kts 355°
2026-05-08 20:07 18.20271 100.05924 31682 ft 446 kts 355°
2026-05-08 20:07 18.23359 100.05683 31108 ft 444 kts 355°
2026-05-08 20:07 18.26432 100.05445 30537 ft 442 kts 355°
2026-05-08 20:08 18.29494 100.05211 29978 ft 440 kts 355°
2026-05-08 20:08 18.32538 100.04976 29411 ft 438 kts 355°
2026-05-08 20:08 18.35566 100.04743 28824 ft 436 kts 355°
2026-05-08 20:08 18.38589 100.04510 28247 ft 434 kts 355°
2026-05-08 20:09 18.41598 100.04278 27689 ft 432 kts 355°
2026-05-08 20:09 18.44589 100.04047 27099 ft 431 kts 355°
2026-05-08 20:09 18.47577 100.03814 26514 ft 429 kts 355°
2026-05-08 20:09 18.50552 100.03580 25935 ft 428 kts 355°
2026-05-08 20:10 18.53510 100.03349 25359 ft 426 kts 355°
2026-05-08 20:10 18.56455 100.03118 24816 ft 423 kts 355°
2026-05-08 20:10 18.59386 100.02888 24233 ft 422 kts 355°
2026-05-08 20:10 18.62313 100.02657 23638 ft 420 kts 355°
2026-05-08 20:11 18.65224 100.02432 23072 ft 419 kts 355°
2026-05-08 20:11 18.68117 100.02204 22523 ft 417 kts 355°
2026-05-08 20:11 18.70998 100.01973 21950 ft 413 kts 355°
2026-05-08 20:11 18.73850 100.01750 21376 ft 408 kts 355°
2026-05-08 20:12 18.76623 100.01533 20821 ft 404 kts 355°
2026-05-08 20:12 18.79414 100.01313 20266 ft 400 kts 355°
2026-05-08 20:12 18.82172 100.01097 19751 ft 394 kts 355°
2026-05-08 20:12 18.84881 100.00886 19264 ft 388 kts 355°
2026-05-08 20:13 18.87560 100.00674 18783 ft 383 kts 355°
2026-05-08 20:13 18.89352 100.00532 18460 ft 380 kts 356°
2026-05-08 20:13 18.92810 100.00260 17865 ft 373 kts 356°
2026-05-08 20:13 18.95373 100.00059 17433 ft 367 kts 356°
2026-05-08 20:14 18.97086 99.99927 17127 ft 364 kts 356°
2026-05-08 20:14 18.99593 99.99725 16682 ft 359 kts 356°
2026-05-08 20:14 19.02073 99.99532 16244 ft 357 kts 356°
2026-05-08 20:14 19.04557 99.99339 15834 ft 357 kts 356°
2026-05-08 20:15 19.07832 99.99083 15300 ft 356 kts 356°
2026-05-08 20:15 19.09501 99.98953 15024 ft 356 kts 356°
2026-05-08 20:15 19.11975 99.98760 14594 ft 356 kts 356°
2026-05-08 20:15 19.14451 99.98566 14165 ft 357 kts 356°
2026-05-08 20:16 19.16923 99.98372 13750 ft 356 kts 356°
2026-05-08 20:16 19.19355 99.98182 13346 ft 355 kts 356°
2026-05-08 20:16 19.21816 99.97989 12932 ft 354 kts 356°
2026-05-08 20:16 19.24266 99.97799 12535 ft 353 kts 356°
2026-05-08 20:17 19.26722 99.97607 12119 ft 352 kts 356°
2026-05-08 20:17 19.29153 99.97415 11714 ft 348 kts 356°
2026-05-08 20:17 19.31542 99.97225 11317 ft 342 kts 356°
2026-05-08 20:17 19.33900 99.97036 10919 ft 336 kts 356°
2026-05-08 20:18 19.36216 99.96853 10592 ft 329 kts 356°
2026-05-08 20:18 19.38470 99.96678 10356 ft 320 kts 356°
2026-05-08 20:18 19.40652 99.96506 10180 ft 309 kts 356°
2026-05-08 20:18 19.42767 99.96340 9935 ft 303 kts 356°
2026-05-08 20:19 19.44851 99.96042 9603 ft 303 kts 343°
2026-05-08 20:19 19.46688 99.94983 9256 ft 301 kts 321°
2026-05-08 20:19 19.48295 99.93558 8918 ft 301 kts 318°
2026-05-08 20:19 19.49884 99.92113 8556 ft 300 kts 319°
2026-05-08 20:20 19.51466 99.90691 8209 ft 297 kts 319°
2026-05-08 20:20 19.53040 99.89294 7872 ft 293 kts 320°
2026-05-08 20:20 19.54599 99.87918 7555 ft 291 kts 320°
2026-05-08 20:20 19.56155 99.86554 7223 ft 291 kts 320°
2026-05-08 20:21 19.57715 99.85186 6881 ft 291 kts 320°
2026-05-08 20:21 19.59269 99.83823 6532 ft 289 kts 320°
2026-05-08 20:21 19.60812 99.82476 6185 ft 286 kts 320°
2026-05-08 20:21 19.62329 99.81154 5984 ft 277 kts 320°
2026-05-08 20:22 19.63774 99.79890 5950 ft 261 kts 320°
2026-05-08 20:22 19.65130 99.78706 5954 ft 244 kts 320°
2026-05-08 20:22 19.66413 99.77586 5963 ft 236 kts 320°
2026-05-08 20:22 19.67678 99.76478 5976 ft 236 kts 320°
2026-05-08 20:23 19.68948 99.75366 5983 ft 237 kts 320°
2026-05-08 20:23 19.70324 99.74455 5971 ft 228 kts 344°
2026-05-08 20:23 19.71806 99.74462 5817 ft 214 kts 21°
2026-05-08 20:23 19.73092 99.75241 5588 ft 213 kts 33°
2026-05-08 20:24 19.74358 99.76059 5480 ft 213 kts 30°
2026-05-08 20:24 19.75638 99.76807 5336 ft 203 kts 28°
2026-05-08 20:24 19.76851 99.77497 5133 ft 194 kts 29°
2026-05-08 20:24 19.78019 99.78182 4876 ft 190 kts 29°
2026-05-08 20:25 19.79166 99.78855 4609 ft 186 kts 29°
2026-05-08 20:25 19.80282 99.79511 4353 ft 181 kts 29°
2026-05-08 20:25 19.81363 99.80146 4102 ft 176 kts 29°
2026-05-08 20:25 19.82404 99.80757 3863 ft 162 kts 29°
2026-05-08 20:26 19.83376 99.81328 3638 ft 159 kts 29°
2026-05-08 20:26 19.84340 99.81895 3451 ft 155 kts 29°
2026-05-08 20:26 19.85222 99.82413 3276 ft 140 kts 29°
2026-05-08 20:26 19.86068 99.82911 3088 ft 138 kts 29°
2026-05-08 20:27 19.86911 99.83406 2899 ft 138 kts 28°
2026-05-08 20:27 19.87748 99.83898 2712 ft 137 kts 29°
2026-05-08 20:27 19.88592 99.84394 2521 ft 139 kts 30°
2026-05-08 20:27 19.89431 99.84887 2341 ft 137 kts 30°
2026-05-08 20:28 19.90263 99.85376 2160 ft 136 kts 30°
2026-05-08 20:28 19.91092 99.85864 1978 ft 136 kts 30°
2026-05-08 20:28 19.91917 99.86349 1799 ft 136 kts 30°
2026-05-08 20:28 19.92741 99.86833 1609 ft 135 kts 30°
2026-05-08 20:29 19.93562 99.87320 1451 ft 135 kts 30°
2026-05-08 20:29 19.94381 99.87804 1307 ft 134 kts 29°
2026-05-08 20:29 19.95069 99.88202 1288 ft 63 kts 28°
2026-05-08 20:29 19.95251 99.88308 1289 ft 13 kts 29°
2026-05-08 20:30 19.95318 99.88290 1288 ft 13 kts 298°
2026-05-08 20:30 19.95365 99.88197 1290 ft 15 kts 298°
2026-05-08 20:30 19.95398 99.88132 1291 ft 9 kts 298°
2026-05-08 20:30 19.95436 99.88087 1291 ft 8 kts 358°
2026-05-08 20:31 19.95479 99.88105 1291 ft 0 kts 34°
2026-05-08 20:31 19.95478 99.88105 1291 ft 0 kts 34°
2026-05-08 20:31 19.95477 99.88104 1291 ft 0 kts 34°
2026-05-08 20:31 19.95481 99.88107 1291 ft 2 kts 34°
2026-05-08 20:32 19.95505 99.88118 1291 ft 5 kts 358°
2026-05-08 20:32 19.95532 99.88081 1291 ft 3 kts 300°
2026-05-08 20:32 19.95538 99.88069 1291 ft 0 kts 298°